Location: Newark
(55.1225°N, 33.2808°E)
Time: 02:35:11
(UTC+00:00)

ISS - Pass Details

Date: 24 September 2019
Orbit: 411 x 421 km, 51.6° (Epoch: 21 October)

Event Time Altitude Azimuth Distance (km) Brightness Sun altitude
Rises 17:46:01 0° 247° (WSW) 2,342 0.6 -18.0°
Reaches altitude 10° 17:48:10 10° 240° (WSW) 1,481 -0.6 -18.3°
Enters shadow 17:50:53 38° 191° (S) 648 -3.0 -18.6°
